When you browse on this site, cookies collect data to enhance your experience and personalize the content and advertising you see.
Visit our Privacy Policy to learn more. By continuing to use the site, you agree to this use of cookies and data.
  • In Hungary
  • List of Countries
  • For 7 days
  • Water Temperature
  • Weather Map
  • News
  • Weather Widgets
  • user-avatar
    Login

    Hourly Weather Tubingen

    Today, 9 December, Monday

    Time Temperature Precipitation Wind Pressure Humidity
    00:00 +6°C° 0.3 mm 7 mps 718 mmHg 81%
    01:00 +6°C° 0 mm 7 mps 718 mmHg 79%
    02:00 +5°C° 0.1 mm 7 mps 717 mmHg 79%
    03:00 +4°C° 0.1 mm 7 mps 717 mmHg 79%
    04:00 +4°C° 0.1 mm 7 mps 717 mmHg 79%
    05:00 +4°C° 0 mm 7 mps 717 mmHg 79%
    06:00 +4°C° 0 mm 7 mps 717 mmHg 79%
    07:00 +4°C° 0 mm 6 mps 717 mmHg 79%
    08:00 +4°C° 0.1 mm 7 mps 717 mmHg 79%
    09:00 +4°C° 0.1 mm 7 mps 716 mmHg 80%
    10:00 +4°C° 0.1 mm 7 mps 716 mmHg 80%
    11:00 +4°C° 0.3 mm 8 mps 716 mmHg 81%
    12:00 +4°C° 0.3 mm 8 mps 715 mmHg 82%
    13:00 +4°C° 0.3 mm 8 mps 715 mmHg 84%
    14:00 +4°C° 0.2 mm 8 mps 715 mmHg 85%
    15:00 +3°C° 0.2 mm 7 mps 716 mmHg 87%
    16:00 +3°C° 0.2 mm 6 mps 716 mmHg 88%
    17:00 +3°C° 0.4 mm 6 mps 717 mmHg 89%
    18:00 +3°C° 0.4 mm 6 mps 718 mmHg 89%
    19:00 +2°C° 0.4 mm 5 mps 719 mmHg 90%
    20:00 +2°C° 0.2 mm 5 mps 720 mmHg 91%
    21:00 +3°C° 0.2 mm 4 mps 721 mmHg 92%
    22:00 +3°C° 0.2 mm 3 mps 722 mmHg 93%
    23:00 +3°C° 0.8 mm 4 mps 723 mmHg 92%

    Tomorrow, 10 December, Tuesday

    Time Temperature Precipitation Wind Pressure Humidity
    00:00 +1°C° 0.8 mm 4 mps 725 mmHg 91%
    01:00 +1°C° 0.8 mm 5 mps 726 mmHg 90%
    02:00 +1°C° 0.1 mm 5 mps 727 mmHg 89%
    03:00 0°C° 0.1 mm 4 mps 728 mmHg 88%
    04:00 0°C° 0.1 mm 4 mps 729 mmHg 87%
    05:00 0°C° 0 mm 3 mps 730 mmHg 89%
    06:00 -1°C° 0 mm 3 mps 731 mmHg 90%
    07:00 -1°C° 0 mm 2 mps 732 mmHg 92%
    08:00 -1°C° 0 mm 2 mps 732 mmHg 89%
    09:00 +1°C° 0 mm 2 mps 733 mmHg 87%
    10:00 +1°C° 0 mm 2 mps 733 mmHg 84%
    11:00 +2°C° 0 mm 2 mps 733 mmHg 79%
    12:00 +2°C° 0 mm 2 mps 733 mmHg 73%
    13:00 +3°C° 0 mm 2 mps 733 mmHg 67%
    14:00 +3°C° 0 mm 1 mps 732 mmHg 71%
    15:00 +3°C° 0 mm 1 mps 732 mmHg 74%
    16:00 +2°C° 0 mm 1 mps 731 mmHg 77%
    17:00 +2°C° 0 mm 1 mps 731 mmHg 79%
    18:00 +1°C° 0 mm 1 mps 731 mmHg 82%
    19:00 +1°C° 0 mm 1 mps 731 mmHg 84%
    20:00 0°C° 0 mm 1 mps 730 mmHg 84%
    21:00 -2°C° 0 mm 2 mps 729 mmHg 85%
    22:00 -2°C° 0 mm 2 mps 729 mmHg 85%
    23:00 -2°C° 0 mm 2 mps 728 mmHg 84%

    Day after tomorrow, 11 December, Wednesday

    Time Temperature Precipitation Wind Pressure Humidity
    00:00 -2°C° 0 mm 2 mps 728 mmHg 82%
    01:00 -2°C° 0 mm 2 mps 727 mmHg 81%
    02:00 -2°C° 0 mm 2 mps 726 mmHg 79%
    03:00 -2°C° 0 mm 2 mps 726 mmHg 77%
    04:00 -1°C° 0 mm 2 mps 725 mmHg 75%
    05:00 -1°C° 0 mm 2 mps 724 mmHg 73%
    06:00 -1°C° 0 mm 2 mps 724 mmHg 70%
    07:00 -1°C° 0 mm 2 mps 724 mmHg 68%
    08:00 +2°C° 0 mm 1 mps 723 mmHg 66%
    09:00 +3°C° 0 mm 1 mps 723 mmHg 64%
    10:00 +3°C° 0 mm 1 mps 722 mmHg 62%
    11:00 +4°C° 0 mm 1 mps 722 mmHg 62%
    12:00 +5°C° 0 mm 1 mps 721 mmHg 61%
    13:00 +5°C° 0 mm 1 mps 720 mmHg 60%
    14:00 +4°C° 0.1 mm 2 mps 720 mmHg 65%
    15:00 +3°C° 0.1 mm 3 mps 719 mmHg 69%
    16:00 +3°C° 0.1 mm 3 mps 719 mmHg 73%
    17:00 +3°C° 0.4 mm 4 mps 719 mmHg 79%
    18:00 +2°C° 0.4 mm 5 mps 720 mmHg 85%
    19:00 +2°C° 0.4 mm 6 mps 720 mmHg 91%
    20:00 +2°C° 0.1 mm 5 mps 720 mmHg 90%
    21:00 +1°C° 0.1 mm 4 mps 720 mmHg 89%
    22:00 +2°C° 0.1 mm 3 mps 720 mmHg 88%
    23:00 +2°C° 0 mm 3 mps 719 mmHg 88%

    12 December, Thursday

    Time Temperature Precipitation Wind Pressure Humidity
    00:00 +1°C° 0 mm 3 mps 719 mmHg 88%
    01:00 +1°C° 0 mm 3 mps 718 mmHg 88%
    02:00 0°C° 0.2 mm 4 mps 718 mmHg 88%
    03:00 0°C° 0.2 mm 5 mps 718 mmHg 88%
    04:00 -1°C° 0.2 mm 6 mps 718 mmHg 89%
    05:00 -1°C° 0.5 mm 6 mps 718 mmHg 89%
    06:00 -1°C° 0.5 mm 6 mps 719 mmHg 89%
    07:00 -1°C° 0.5 mm 7 mps 719 mmHg 89%
    08:00 -1°C° 0 mm 6 mps 720 mmHg 86%
    09:00 -1°C° 0 mm 6 mps 720 mmHg 84%
    10:00 -1°C° 0 mm 6 mps 720 mmHg 81%
    11:00 -1°C° 0 mm 6 mps 720 mmHg 79%
    12:00 +1°C° 0 mm 6 mps 720 mmHg 77%
    13:00 +1°C° 0 mm 6 mps 720 mmHg 75%
    14:00 -1°C° 0 mm 6 mps 720 mmHg 77%
    15:00 0°C° 0 mm 5 mps 719 mmHg 79%
    16:00 -1°C° 0 mm 4 mps 718 mmHg 81%
    17:00 -1°C° 0 mm 5 mps 717 mmHg 80%
    18:00 -1°C° 0 mm 5 mps 716 mmHg 80%
    19:00 -1°C° 0 mm 5 mps 715 mmHg 80%
    20:00 0°C° 0 mm 5 mps 714 mmHg 77%
    21:00 -1°C° 0 mm 6 mps 712 mmHg 73%
    22:00 +1°C° 0 mm 6 mps 711 mmHg 70%
    23:00 0°C° 0.4 mm 7 mps 709 mmHg 75%

    13 December, Friday

    Time Temperature Precipitation Wind Pressure Humidity
    00:00 +1°C° 0.4 mm 9 mps 707 mmHg 79%
    01:00 +1°C° 0.4 mm 10 mps 705 mmHg 84%
    02:00 +1°C° 1 mm 10 mps 704 mmHg 86%
    03:00 +1°C° 1 mm 10 mps 703 mmHg 87%
    04:00 +1°C° 1 mm 10 mps 702 mmHg 89%
    05:00 +1°C° 2.6 mm 9 mps 701 mmHg 90%
    06:00 +1°C° 2.6 mm 8 mps 701 mmHg 91%
    07:00 +2°C° 2.6 mm 7 mps 700 mmHg 92%
    08:00 +2°C° 3.5 mm 7 mps 700 mmHg 93%
    09:00 +1°C° 3.5 mm 6 mps 701 mmHg 93%
    10:00 +1°C° 3.5 mm 6 mps 701 mmHg 93%
    11:00 +1°C° 0.5 mm 6 mps 702 mmHg 90%
    12:00 0°C° 0.5 mm 7 mps 703 mmHg 86%
    13:00 +2°C° 0.5 mm 7 mps 704 mmHg 83%
    14:00 0°C° 0.1 mm 8 mps 704 mmHg 84%
    15:00 0°C° 0.1 mm 9 mps 704 mmHg 84%
    16:00 0°C° 0.1 mm 9 mps 704 mmHg 84%
    17:00 0°C° 0.6 mm 9 mps 705 mmHg 87%
    18:00 0°C° 0.6 mm 10 mps 705 mmHg 90%
    19:00 0°C° 0.6 mm 10 mps 706 mmHg 92%
    20:00 0°C° 0.6 mm 9 mps 707 mmHg 92%
    21:00 0°C° 0.6 mm 9 mps 707 mmHg 92%
    22:00 0°C° 0.6 mm 8 mps 708 mmHg 92%
    23:00 0°C° 0.9 mm 8 mps 708 mmHg 93%

    14 December, Saturday

    Time Temperature Precipitation Wind Pressure Humidity
    00:00 0°C° 0.9 mm 8 mps 709 mmHg 93%
    01:00 -1°C° 0.9 mm 8 mps 709 mmHg 93%
    02:00 -1°C° 0.3 mm 8 mps 709 mmHg 91%
    03:00 -1°C° 0.3 mm 8 mps 709 mmHg 90%
    04:00 -1°C° 0.3 mm 7 mps 709 mmHg 88%
    05:00 0°C° 0.1 mm 7 mps 709 mmHg 90%
    06:00 0°C° 0.1 mm 7 mps 709 mmHg 91%
    07:00 0°C° 0.1 mm 7 mps 709 mmHg 92%
    08:00 +1°C° 0.5 mm 6 mps 709 mmHg 92%
    09:00 +2°C° 0.5 mm 6 mps 709 mmHg 92%
    10:00 +2°C° 0.5 mm 5 mps 710 mmHg 93%
    11:00 +3°C° 0.1 mm 5 mps 710 mmHg 90%
    12:00 +3°C° 0.1 mm 6 mps 711 mmHg 88%
    13:00 +4°C° 0.1 mm 6 mps 711 mmHg 86%
    14:00 +3°C° 0.1 mm 5 mps 712 mmHg 87%
    15:00 +3°C° 0.1 mm 5 mps 713 mmHg 88%
    16:00 +3°C° 0.1 mm 5 mps 713 mmHg 90%
    17:00 +3°C° 0.7 mm 6 mps 714 mmHg 89%
    18:00 +4°C° 0.7 mm 6 mps 715 mmHg 88%
    19:00 +4°C° 0.7 mm 7 mps 716 mmHg 87%
    20:00 +4°C° 0.1 mm 7 mps 716 mmHg 87%
    21:00 +3°C° 0.1 mm 6 mps 717 mmHg 87%
    22:00 +3°C° 0.1 mm 6 mps 718 mmHg 86%
    23:00 +3°C° 0.1 mm 5 mps 718 mmHg 87%
    Show more